Date String (YYYY-MM-DD hh:mm:ss) UTC,Instrument flags,absolute air pressure of the measurement (hPa),sample flow rate (lpm),inlet stack bypass flow (lpm),air temperature of the measurement (°C),ambient temperature measured by the external sensor (°C),aerosol sample conditioner tube jacket temperature (°C),OPC LED temperature (°C),internal box temperature (°C),relative humidity of the measurement (%),span deviation,mass concentration of particles derived from Lorenz-Mie calculation of OPC scattering (μg/m³),mass concentration of particles derived from Lorenz-Mie calculation of OPC scattering (μg/m³),mass concentration of particles derived from Lorenz-Mie calculation of OPC scattering (μg/m³)
DateTimeUTC,F1_M11,P_M11,Q1_M11,Q2_M11,T1_M11,T2_M11,T3_M11,T4_M11,T5_M11,U1_M11,ZSPAN_M11,X0_M11,X2_M11,X1_M11
2023-09-17 18:00:00,SystemResetWarning,0834.8,5.00,000.00,027.7,026.1,000.0,036.0,029.3,19.1,0000.0,0008.14,0003.73,0003.42
2023-09-17 18:01:00,SystemResetWarning,0834.9,5.00,000.00,027.7,026.3,000.0,036.0,029.4,20.4,0000.0,0008.06,0003.71,0003.40
2023-09-17 18:02:00,SystemResetWarning,0834.8,5.01,000.00,027.8,026.6,000.0,036.1,029.4,20.0,0000.0,0007.89,0003.70,0003.39
2023-09-17 18:03:00,SystemResetWarning,0835.0,5.00,000.00,027.8,026.7,000.0,036.1,029.5,19.5,0000.0,0007.31,0003.69,0003.39
2023-09-17 18:04:00,SystemResetWarning,0835.0,5.00,000.00,027.9,026.9,000.0,036.1,029.5,19.8,0000.0,0007.27,0003.68,0003.38
2023-09-17 18:05:00,SystemResetWarning,0834.8,4.99,000.00,027.9,026.4,000.0,036.1,029.5,19.6,0000.0,0007.26,0003.70,0003.38
2023-09-17 18:06:00,SystemResetWarning,0835.0,5.00,000.00,027.8,024.8,000.0,036.0,029.0,20.2,0000.0,0007.15,0003.68,0003.38
2023-09-17 18:07:00,SystemResetWarning,0835.3,5.01,000.00,027.7,024.1,000.0,036.0,028.9,19.9,0000.0,0007.20,0003.69,0003.38
2023-09-17 18:08:00,SystemResetWarning,0835.0,5.00,000.00,027.6,024.4,000.0,036.0,028.9,19.7,0000.0,0007.54,0003.69,0003.38
2023-09-17 18:09:00,SystemResetWarning,0835.0,5.00,000.00,027.6,024.7,000.0,036.0,028.9,20.1,0000.0,0007.62,0003.69,0003.38
2023-09-17 18:10:00,SystemResetWarning,0835.3,5.00,000.00,027.6,025.1,000.0,036.0,029.0,19.0,0000.0,0007.51,0003.69,0003.37
2023-09-17 18:11:00,SystemResetWarning,0834.7,5.01,000.00,027.6,025.4,000.0,036.0,029.1,19.7,0000.0,0006.04,0003.68,0003.37
2023-09-17 18:12:00,SystemResetWarning,0835.0,4.99,000.00,027.6,025.8,000.0,036.0,029.2,20.5,0000.0,0006.09,0003.69,0003.37
2023-09-17 18:13:00,SystemResetWarning,0834.7,5.00,000.00,027.7,026.1,000.0,036.0,029.2,20.7,0000.0,0006.14,0003.70,0003.38
2023-09-17 18:14:00,SystemResetWarning,0834.7,5.00,000.00,027.7,026.3,000.0,036.0,029.3,21.2,0000.0,0006.13,0003.69,0003.38
2023-09-17 18:15:00,SystemResetWarning,0834.6,5.00,000.00,027.8,026.5,000.0,036.0,029.4,21.0,0000.0,0006.17,0003.69,0003.38
2023-09-17 18:16:00,SystemResetWarning,0834.6,5.00,000.00,027.8,026.7,000.0,036.0,029.5,20.5,0000.0,0006.16,0003.68,0003.38
2023-09-17 18:17:00,SystemResetWarning,0834.6,5.00,000.00,027.8,026.8,000.0,036.1,029.5,20.6,0000.0,0006.18,0003.68,0003.37
2023-09-17 18:18:00,SystemResetWarning,0834.8,4.98,000.00,027.9,026.1,000.0,036.0,029.3,20.3,0000.0,0006.94,0003.67,0003.36
2023-09-17 18:19:00,SystemResetWarning,0835.1,5.01,000.00,027.7,024.5,000.0,036.0,028.9,21.1,0000.0,0006.89,0003.66,0003.36
2023-09-17 18:20:00,SystemResetWarning,0834.8,5.01,000.00,027.6,024.1,000.0,035.9,028.9,22.4,0000.0,0006.61,0003.66,0003.35
2023-09-17 18:21:00,SystemResetWarning,0834.8,5.00,000.00,027.6,024.4,000.0,035.9,028.9,22.2,0000.0,0006.71,0003.65,0003.34
2023-09-17 18:22:00,SystemResetWarning,0834.8,5.01,000.00,027.5,024.7,000.0,035.9,028.9,21.8,0000.0,0007.04,0003.65,0003.34
2023-09-17 18:23:00,SystemResetWarning,0835.0,4.99,000.00,027.5,025.1,000.0,035.9,029.0,21.4,0000.0,0007.60,0003.66,0003.34
2023-09-17 18:24:00,SystemResetWarning,0834.8,4.99,000.00,027.6,025.5,000.0,036.0,029.1,19.6,0000.0,0007.62,0003.67,0003.34
2023-09-17 18:25:00,SystemResetWarning,0835.0,5.00,000.00,027.6,025.8,000.0,036.0,029.1,19.7,0000.0,0007.66,0003.69,0003.34
2023-09-17 18:26:00,SystemResetWarning,0835.1,5.00,000.00,027.6,026.1,000.0,036.0,029.2,20.1,0000.0,0007.66,0003.68,0003.32
2023-09-17 18:27:00,SystemResetWarning,0835.0,5.01,000.00,027.7,026.3,000.0,036.0,029.3,20.5,0000.0,0007.64,0003.68,0003.33
2023-09-17 18:28:00,SystemResetWarning,0835.0,5.00,000.00,027.7,026.5,000.0,036.0,029.4,20.6,0000.0,0007.68,0003.70,0003.33
2023-09-17 18:29:00,SystemResetWarning,0834.5,5.00,000.00,027.8,026.7,000.0,036.0,029.4,19.6,0000.0,0007.70,0003.70,0003.33
2023-09-17 18:30:00,SystemResetWarning,0834.8,5.00,000.00,027.8,026.8,000.0,036.0,029.5,20.1,0000.0,0008.93,0003.69,0003.33
2023-09-17 18:31:00,SystemResetWarning,0834.7,4.98,000.00,027.8,025.7,000.0,036.0,029.2,20.3,0000.0,0008.96,0003.69,0003.32
2023-09-17 18:32:00,SystemResetWarning,0834.5,5.00,000.00,027.7,024.3,000.0,035.9,028.8,20.3,0000.0,0008.90,0003.67,0003.32
2023-09-17 18:33:00,SystemResetWarning,0834.5,5.01,000.00,027.6,024.2,000.0,035.9,028.8,20.3,0000.0,0008.70,0003.67,0003.31
2023-09-17 18:34:00,SystemResetWarning,0834.5,5.01,000.00,027.5,024.5,000.0,035.9,028.8,20.3,0000.0,0008.30,0003.66,0003.30
2023-09-17 18:35:00,SystemResetWarning,0834.5,4.99,000.00,027.5,024.8,000.0,035.9,028.9,20.0,0000.0,0008.27,0003.64,0003.29
2023-09-17 18:36:00,SystemResetWarning,0834.5,5.00,000.00,027.5,025.2,000.0,035.9,029.0,20.1,0000.0,0008.26,0003.63,0003.29
2023-09-17 18:37:00,SystemResetWarning,0834.5,5.00,000.00,027.5,025.6,000.0,035.9,029.1,20.2,0000.0,0008.27,0003.65,0003.30
2023-09-17 18:38:00,SystemResetWarning,0834.5,4.99,000.00,027.6,025.9,000.0,035.9,029.1,19.9,0000.0,0008.27,0003.66,0003.31
2023-09-17 18:39:00,SystemResetWarning,0834.5,5.00,000.00,027.6,026.1,000.0,035.9,029.2,19.3,0000.0,0008.22,0003.64,0003.31
2023-09-17 18:40:00,SystemResetWarning,0834.5,5.00,000.00,027.7,026.4,000.0,035.9,029.3,19.5,0000.0,0008.06,0003.64,0003.31
2023-09-17 18:41:00,SystemResetWarning,0834.5,5.00,000.00,027.7,026.6,000.0,036.0,029.4,20.4,0000.0,0006.07,0003.67,0003.31
2023-09-17 18:42:00,SystemResetWarning,0834.4,5.01,000.00,027.8,026.7,000.0,036.0,029.4,20.7,0000.0,0005.67,0003.67,0003.32
2023-09-17 18:43:00,SystemResetWarning,0834.4,5.00,000.00,027.8,026.9,000.0,036.0,029.5,19.8,0000.0,0005.74,0003.71,0003.33
2023-09-17 18:44:00,SystemResetWarning,0834.4,4.98,000.00,027.8,026.3,000.0,036.0,029.4,19.8,0000.0,0005.97,0003.74,0003.35
2023-09-17 18:45:00,SystemResetWarning,0834.4,5.01,000.00,027.7,024.7,000.0,036.0,028.9,19.4,0000.0,0005.97,0003.75,0003.36
2023-09-17 18:46:00,SystemResetWarning,0834.4,5.01,000.00,027.6,024.1,000.0,035.9,028.9,19.7,0000.0,0005.88,0003.74,0003.37
2023-09-17 18:47:00,SystemResetWarning,0834.3,5.00,000.00,027.6,024.4,000.0,035.9,029.0,20.4,0000.0,0005.95,0003.73,0003.36
2023-09-17 18:48:00,SystemResetWarning,0834.3,4.99,000.00,027.5,024.7,000.0,035.9,028.9,20.6,0000.0,0006.07,0003.75,0003.37
2023-09-17 18:49:00,SystemResetWarning,0834.4,5.00,000.00,027.5,025.1,000.0,035.9,029.0,21.2,0000.0,0006.70,0003.74,0003.37
2023-09-17 18:50:00,SystemResetWarning,0834.3,5.01,000.00,027.6,025.4,000.0,035.9,029.0,20.5,0000.0,0007.00,0003.77,0003.37
2023-09-17 18:51:00,SystemResetWarning,0834.3,5.00,000.00,027.6,025.7,000.0,035.9,029.1,19.9,0000.0,0007.04,0003.77,0003.37
2023-09-17 18:52:00,SystemResetWarning,0834.3,5.00,000.00,027.6,026.0,000.0,035.9,029.2,19.8,0000.0,0006.85,0003.76,0003.39
2023-09-17 18:53:00,SystemResetWarning,0834.3,5.00,000.00,027.7,026.3,000.0,036.0,029.3,20.6,0000.0,0006.84,0003.76,0003.38
2023-09-17 18:54:00,SystemResetWarning,0834.6,5.00,000.00,027.7,026.5,000.0,036.0,029.4,20.6,0000.0,0006.86,0003.73,0003.37
2023-09-17 18:55:00,SystemResetWarning,0834.6,4.99,000.00,027.8,026.7,000.0,036.0,029.4,20.9,0000.0,0006.74,0003.72,0003.37
2023-09-17 18:56:00,SystemResetWarning,0834.4,4.99,000.00,027.8,026.8,000.0,036.0,029.5,21.9,0000.0,0006.76,0003.71,0003.37
2023-09-17 18:57:00,SystemResetWarning,0834.4,5.00,000.00,027.8,026.7,000.0,036.0,029.5,21.5,0000.0,0006.74,0003.72,0003.37
2023-09-17 18:58:00,SystemResetWarning,0834.3,5.00,000.00,027.8,025.3,000.0,036.0,029.1,21.4,0000.0,0006.67,0003.72,0003.39
2023-09-17 18:59:00,SystemResetWarning,0834.2,5.01,000.00,027.7,024.1,000.0,035.9,028.9,21.3,0000.0,0006.56,0003.72,0003.38
